Year,Month,Day,Hour,Minute,Value (Times are PST for temperature in C)
2009,07,21,00,00,19.20
2009,07,21,00,01,19.20
2009,07,21,00,02,19.10
2009,07,21,00,03,19.10
2009,07,21,00,04,19.10
2009,07,21,00,05,19.10
2009,07,21,00,06,19.00
2009,07,21,00,07,19.00
2009,07,21,00,08,18.90
2009,07,21,00,09,18.90
2009,07,21,00,10,18.90
2009,07,21,00,11,18.90
2009,07,21,00,12,18.80
2009,07,21,00,13,18.80
2009,07,21,00,14,18.80
2009,07,21,00,15,18.80
2009,07,21,00,16,18.70
2009,07,21,00,17,18.70
2009,07,21,00,18,18.70
2009,07,21,00,19,18.70
2009,07,21,00,20,18.70
2009,07,21,00,21,18.70
2009,07,21,00,22,18.70
2009,07,21,00,23,18.70
2009,07,21,00,24,18.60
2009,07,21,00,25,18.60
2009,07,21,00,26,18.60
2009,07,21,00,27,18.60
2009,07,21,00,28,18.60
2009,07,21,00,29,18.60
2009,07,21,00,30,18.60
2009,07,21,00,31,18.50
2009,07,21,00,32,18.50
2009,07,21,00,33,18.50
2009,07,21,00,34,18.50
2009,07,21,00,35,18.50
2009,07,21,00,36,18.50
2009,07,21,00,37,18.50
2009,07,21,00,38,18.40
2009,07,21,00,39,18.40
2009,07,21,00,40,18.40
2009,07,21,00,41,18.40
2009,07,21,00,42,18.40
2009,07,21,00,43,18.40
2009,07,21,00,44,18.50
2009,07,21,00,45,18.50
2009,07,21,00,46,18.50
2009,07,21,00,47,18.50
2009,07,21,00,48,18.50
2009,07,21,00,49,18.50
2009,07,21,00,50,18.50
2009,07,21,00,51,18.50
2009,07,21,00,52,18.40
2009,07,21,00,53,18.40
2009,07,21,00,54,18.40
2009,07,21,00,55,18.40
2009,07,21,00,56,18.40
2009,07,21,00,57,18.40
2009,07,21,00,58,18.40
2009,07,21,00,59,18.40
2009,07,21,01,00,18.40
2009,07,21,01,01,18.30
2009,07,21,01,02,18.30
2009,07,21,01,03,18.30
2009,07,21,01,04,18.30
2009,07,21,01,05,18.20
2009,07,21,01,06,18.20
2009,07,21,01,07,18.20
2009,07,21,01,08,18.10
2009,07,21,01,09,18.10
2009,07,21,01,10,18.10
2009,07,21,01,11,18.00
2009,07,21,01,12,18.00
2009,07,21,01,13,17.90
2009,07,21,01,14,17.90
2009,07,21,01,15,17.90
2009,07,21,01,16,17.80
2009,07,21,01,17,17.80
2009,07,21,01,18,17.80
2009,07,21,01,19,17.80
2009,07,21,01,20,17.80
2009,07,21,01,21,17.70
2009,07,21,01,22,17.70
2009,07,21,01,23,17.60
2009,07,21,01,24,17.60
2009,07,21,01,25,17.50
2009,07,21,01,26,17.50
2009,07,21,01,27,17.40
2009,07,21,01,28,17.30
2009,07,21,01,29,17.30
2009,07,21,01,30,17.20
2009,07,21,01,31,17.20
2009,07,21,01,32,17.20
2009,07,21,01,33,17.20
2009,07,21,01,34,17.20
2009,07,21,01,35,17.20
2009,07,21,01,36,17.20
2009,07,21,01,37,17.20
2009,07,21,01,38,17.20
2009,07,21,01,39,17.20
2009,07,21,01,40,17.20
2009,07,21,01,41,17.10
2009,07,21,01,42,17.10
2009,07,21,01,43,17.10
2009,07,21,01,44,17.10
2009,07,21,01,45,17.10
2009,07,21,01,46,17.10
2009,07,21,01,47,17.10
2009,07,21,01,48,17.10
2009,07,21,01,49,17.10
2009,07,21,01,50,17.10
2009,07,21,01,51,17.00
2009,07,21,01,52,17.00
2009,07,21,01,53,17.00
2009,07,21,01,54,17.00
2009,07,21,01,55,17.00
2009,07,21,01,56,16.90
2009,07,21,01,57,16.90
2009,07,21,01,58,16.90
2009,07,21,01,59,16.90
2009,07,21,02,00,16.90
2009,07,21,02,01,16.90
2009,07,21,02,02,16.90
2009,07,21,02,03,16.90
2009,07,21,02,04,16.90
2009,07,21,02,05,16.90
2009,07,21,02,06,16.80
2009,07,21,02,07,16.80
2009,07,21,02,08,16.80
2009,07,21,02,09,16.80
2009,07,21,02,10,16.80
2009,07,21,02,11,16.80
2009,07,21,02,12,16.80
2009,07,21,02,13,16.80
2009,07,21,02,14,16.80
2009,07,21,02,15,16.80
2009,07,21,02,16,16.80
2009,07,21,02,17,16.80
2009,07,21,02,18,16.80
2009,07,21,02,19,16.80
2009,07,21,02,20,16.80
2009,07,21,02,21,16.70
2009,07,21,02,22,16.70
2009,07,21,02,23,16.70
2009,07,21,02,24,16.70
2009,07,21,02,25,16.70
2009,07,21,02,26,16.70
2009,07,21,02,27,16.60
2009,07,21,02,28,16.60
2009,07,21,02,29,16.60
2009,07,21,02,30,16.60
2009,07,21,02,31,16.60
2009,07,21,02,32,16.50
2009,07,21,02,33,16.50
2009,07,21,02,34,16.50
2009,07,21,02,35,16.50
2009,07,21,02,36,16.40
2009,07,21,02,37,16.40
2009,07,21,02,38,16.40
2009,07,21,02,39,16.40
2009,07,21,02,40,16.30
2009,07,21,02,41,16.30
2009,07,21,02,42,16.30
2009,07,21,02,43,16.30
2009,07,21,02,44,16.20
2009,07,21,02,45,16.20
2009,07,21,02,46,16.20
2009,07,21,02,47,16.20
2009,07,21,02,48,16.20
2009,07,21,02,49,16.10
2009,07,21,02,50,16.10
2009,07,21,02,51,16.10
2009,07,21,02,52,16.10
2009,07,21,02,53,16.10
2009,07,21,02,54,16.10
2009,07,21,02,55,16.10
2009,07,21,02,56,16.10
2009,07,21,02,57,16.10
2009,07,21,02,58,16.10
2009,07,21,02,59,16.10
2009,07,21,03,00,16.00
2009,07,21,03,01,16.00
2009,07,21,03,02,16.00
2009,07,21,03,03,15.90
2009,07,21,03,04,15.90
2009,07,21,03,05,15.90
2009,07,21,03,06,15.80
2009,07,21,03,07,15.80
2009,07,21,03,08,15.80
2009,07,21,03,09,15.80
2009,07,21,03,10,15.80
2009,07,21,03,11,15.80
2009,07,21,03,12,15.70
2009,07,21,03,13,15.70
2009,07,21,03,14,15.70
2009,07,21,03,15,15.70
2009,07,21,03,16,15.60
2009,07,21,03,17,15.60
2009,07,21,03,18,15.60
2009,07,21,03,19,15.60
2009,07,21,03,20,15.60
2009,07,21,03,21,15.50
2009,07,21,03,22,15.50
2009,07,21,03,23,15.40
2009,07,21,03,24,15.40
2009,07,21,03,25,15.40
2009,07,21,03,26,15.30
2009,07,21,03,27,15.30
2009,07,21,03,28,15.30
2009,07,21,03,29,15.30
2009,07,21,03,30,15.30
2009,07,21,03,31,15.30
2009,07,21,03,32,15.30
2009,07,21,03,33,15.30
2009,07,21,03,34,15.30
2009,07,21,03,35,15.20
2009,07,21,03,36,15.20
2009,07,21,03,37,15.20
2009,07,21,03,38,15.10
2009,07,21,03,39,15.10
2009,07,21,03,40,15.10
2009,07,21,03,41,15.10
2009,07,21,03,42,15.10
2009,07,21,03,43,15.00
2009,07,21,03,44,15.00
2009,07,21,03,45,15.00
2009,07,21,03,46,15.00
2009,07,21,03,47,15.00
2009,07,21,03,48,15.00
2009,07,21,03,49,15.00
2009,07,21,03,50,15.00
2009,07,21,03,51,15.00
2009,07,21,03,52,15.00
2009,07,21,03,53,15.00
2009,07,21,03,54,15.00
2009,07,21,03,55,15.00
2009,07,21,03,56,15.00
2009,07,21,03,57,15.00
2009,07,21,03,58,15.00
2009,07,21,03,59,15.00
2009,07,21,04,00,15.00
2009,07,21,04,01,15.00
2009,07,21,04,02,15.00
2009,07,21,04,03,15.00
2009,07,21,04,04,15.00
2009,07,21,04,05,15.00
2009,07,21,04,06,14.90
2009,07,21,04,07,14.90
2009,07,21,04,08,14.90
2009,07,21,04,09,14.80
2009,07,21,04,10,14.80
2009,07,21,04,11,14.80
2009,07,21,04,12,14.80
2009,07,21,04,13,14.80
2009,07,21,04,14,14.80
2009,07,21,04,15,14.80
2009,07,21,04,16,14.80
2009,07,21,04,17,14.80
2009,07,21,04,18,14.80
2009,07,21,04,19,14.80
2009,07,21,04,20,14.70
2009,07,21,04,21,14.70
2009,07,21,04,22,14.70
2009,07,21,04,23,14.70
2009,07,21,04,24,14.70
2009,07,21,04,25,14.70
2009,07,21,04,26,14.70
2009,07,21,04,27,14.60
2009,07,21,04,28,14.60
2009,07,21,04,29,14.60
2009,07,21,04,30,14.60
2009,07,21,04,31,14.60
2009,07,21,04,32,14.70
2009,07,21,04,33,14.70
2009,07,21,04,34,14.70
2009,07,21,04,35,14.70
2009,07,21,04,36,14.70
2009,07,21,04,37,14.70
2009,07,21,04,38,14.70
2009,07,21,04,39,14.70
2009,07,21,04,40,14.70
2009,07,21,04,41,14.70
2009,07,21,04,42,14.70
2009,07,21,04,43,14.70
2009,07,21,04,44,14.70
2009,07,21,04,45,14.70
2009,07,21,04,46,14.70
2009,07,21,04,47,14.70
2009,07,21,04,48,14.70
2009,07,21,04,49,14.70
2009,07,21,04,50,14.70
2009,07,21,04,51,14.70
2009,07,21,04,52,14.70
2009,07,21,04,53,14.70
2009,07,21,04,54,14.70
2009,07,21,04,55,14.70
2009,07,21,04,56,14.70
2009,07,21,04,57,14.70
2009,07,21,04,58,14.60
2009,07,21,04,59,14.60
2009,07,21,05,00,14.60
2009,07,21,05,01,14.60
2009,07,21,05,02,14.60
2009,07,21,05,03,14.60
2009,07,21,05,04,14.60
2009,07,21,05,05,14.60
2009,07,21,05,06,14.60
2009,07,21,05,07,14.50
2009,07,21,05,08,14.50
2009,07,21,05,09,14.50
2009,07,21,05,10,14.40
2009,07,21,05,11,14.40
2009,07,21,05,12,14.40
2009,07,21,05,13,14.30
2009,07,21,05,14,14.30
2009,07,21,05,15,14.30
2009,07,21,05,16,14.30
2009,07,21,05,17,14.20
2009,07,21,05,18,14.20
2009,07,21,05,19,14.20
2009,07,21,05,20,14.20
2009,07,21,05,21,14.20
2009,07,21,05,22,14.20
2009,07,21,05,23,14.20
2009,07,21,05,24,14.20
2009,07,21,05,25,14.20
2009,07,21,05,26,14.20
2009,07,21,05,27,14.20
2009,07,21,05,28,14.20
2009,07,21,05,29,14.20
2009,07,21,05,30,14.20
2009,07,21,05,31,14.20
2009,07,21,05,32,14.10
2009,07,21,05,33,14.10
2009,07,21,05,34,14.10
2009,07,21,05,35,14.10
2009,07,21,05,36,14.10
2009,07,21,05,37,14.10
2009,07,21,05,38,14.10
2009,07,21,05,39,14.10
2009,07,21,05,40,14.10
2009,07,21,05,41,14.10
2009,07,21,05,42,14.00
2009,07,21,05,43,14.00
2009,07,21,05,44,14.00
2009,07,21,05,45,14.00
2009,07,21,05,46,14.00
2009,07,21,05,47,13.90
2009,07,21,05,48,13.90
2009,07,21,05,49,13.90
2009,07,21,05,50,13.90
2009,07,21,05,51,13.90
2009,07,21,05,52,13.90
2009,07,21,05,53,13.90
2009,07,21,05,54,13.80
2009,07,21,05,55,13.80
2009,07,21,05,56,13.80
2009,07,21,05,57,13.80
2009,07,21,05,58,13.80
2009,07,21,05,59,13.80
2009,07,21,06,00,13.80
2009,07,21,06,01,13.80
2009,07,21,06,02,13.80
2009,07,21,06,03,13.80
2009,07,21,06,04,13.80
2009,07,21,06,05,13.80
2009,07,21,06,06,13.90
2009,07,21,06,07,13.90
2009,07,21,06,08,13.90
2009,07,21,06,09,13.90
2009,07,21,06,10,13.90
2009,07,21,06,11,13.90
2009,07,21,06,12,13.90
2009,07,21,06,13,13.90
2009,07,21,06,14,13.90
2009,07,21,06,15,13.90
2009,07,21,06,16,13.90
2009,07,21,06,17,13.90
2009,07,21,06,18,13.90
2009,07,21,06,19,13.90
2009,07,21,06,20,13.90
2009,07,21,06,21,13.90
2009,07,21,06,22,13.90
2009,07,21,06,23,13.90
2009,07,21,06,24,13.80
2009,07,21,06,25,13.80
2009,07,21,06,26,13.80
2009,07,21,06,27,13.80
2009,07,21,06,28,13.80
2009,07,21,06,29,13.80
2009,07,21,06,30,13.80
2009,07,21,06,31,13.80
2009,07,21,06,32,13.80
2009,07,21,06,33,13.80
2009,07,21,06,34,13.80
2009,07,21,06,35,13.80
2009,07,21,06,36,13.80
2009,07,21,06,37,13.80
2009,07,21,06,38,13.90
2009,07,21,06,39,13.90
2009,07,21,06,40,13.90
2009,07,21,06,41,14.00
2009,07,21,06,42,14.00
2009,07,21,06,43,14.10
2009,07,21,06,44,14.10
2009,07,21,06,45,14.10
2009,07,21,06,46,14.10
2009,07,21,06,47,14.20
2009,07,21,06,48,14.20
2009,07,21,06,49,14.20
2009,07,21,06,50,14.30
2009,07,21,06,51,14.30
2009,07,21,06,52,14.40
2009,07,21,06,53,14.40
2009,07,21,06,54,14.40
2009,07,21,06,55,14.50
2009,07,21,06,56,14.50
2009,07,21,06,57,14.60
2009,07,21,06,58,14.60
2009,07,21,06,59,14.60
2009,07,21,07,00,14.60
2009,07,21,07,01,14.60
2009,07,21,07,02,14.70
2009,07,21,07,03,14.70
2009,07,21,07,04,14.70
2009,07,21,07,05,14.80
2009,07,21,07,06,14.80
2009,07,21,07,07,14.90
2009,07,21,07,08,14.90
2009,07,21,07,09,15.00
2009,07,21,07,10,15.00
2009,07,21,07,11,15.00
2009,07,21,07,12,15.00
2009,07,21,07,13,15.00
2009,07,21,07,14,15.00
2009,07,21,07,15,15.00
2009,07,21,07,16,15.00
2009,07,21,07,17,15.10
2009,07,21,07,18,15.10
2009,07,21,07,19,15.20
2009,07,21,07,20,15.20
2009,07,21,07,21,15.20
2009,07,21,07,22,15.20
2009,07,21,07,23,15.20
2009,07,21,07,24,15.30
2009,07,21,07,25,15.30
2009,07,21,07,26,15.30
2009,07,21,07,27,15.30
2009,07,21,07,28,15.30
2009,07,21,07,29,15.40
2009,07,21,07,30,15.40
2009,07,21,07,31,15.40
2009,07,21,07,32,15.40
2009,07,21,07,33,15.50
2009,07,21,07,34,15.50
2009,07,21,07,35,15.50
2009,07,21,07,36,15.60
2009,07,21,07,37,15.60
2009,07,21,07,38,15.60
2009,07,21,07,39,15.60
2009,07,21,07,40,15.70
2009,07,21,07,41,15.70
2009,07,21,07,42,15.70
2009,07,21,07,43,15.80
2009,07,21,07,44,15.80
2009,07,21,07,45,15.80
2009,07,21,07,46,15.90
2009,07,21,07,47,15.90
2009,07,21,07,48,15.90
2009,07,21,07,49,16.00
2009,07,21,07,50,16.00
2009,07,21,07,51,16.10
2009,07,21,07,52,16.10
2009,07,21,07,53,16.20
2009,07,21,07,54,16.20
2009,07,21,07,55,16.20
2009,07,21,07,56,16.20
2009,07,21,07,57,16.30
2009,07,21,07,58,16.30
2009,07,21,07,59,16.30
2009,07,21,08,00,16.40
2009,07,21,08,01,16.40
2009,07,21,08,02,16.50
2009,07,21,08,03,16.60
2009,07,21,08,04,16.60
2009,07,21,08,05,16.70
2009,07,21,08,06,16.80
2009,07,21,08,07,16.80
2009,07,21,08,08,16.90
2009,07,21,08,09,17.00
2009,07,21,08,10,17.00
2009,07,21,08,11,17.10
2009,07,21,08,12,17.10
2009,07,21,08,13,17.10
2009,07,21,08,14,17.10
2009,07,21,08,15,17.30
2009,07,21,08,16,17.30
2009,07,21,08,17,17.40
2009,07,21,08,18,17.50
2009,07,21,08,19,17.50
2009,07,21,08,20,17.60
2009,07,21,08,21,17.70
2009,07,21,08,22,17.80
2009,07,21,08,23,17.90
2009,07,21,08,24,17.90
2009,07,21,08,25,18.00
2009,07,21,08,26,18.10
2009,07,21,08,27,18.20
2009,07,21,08,28,18.20
2009,07,21,08,29,18.30
2009,07,21,08,30,18.40
2009,07,21,08,31,18.50
2009,07,21,08,32,18.60
2009,07,21,08,33,18.70
2009,07,21,08,34,18.80
2009,07,21,08,35,18.80
2009,07,21,08,36,18.90
2009,07,21,08,37,18.90
2009,07,21,08,38,19.00
2009,07,21,08,39,19.10
2009,07,21,08,40,19.10
2009,07,21,08,41,19.20
2009,07,21,08,42,19.30
2009,07,21,08,43,19.30
2009,07,21,08,44,19.40
2009,07,21,08,45,19.40
2009,07,21,08,46,19.50
2009,07,21,08,47,19.60
2009,07,21,08,48,19.70
2009,07,21,08,49,19.70
2009,07,21,08,50,19.80
2009,07,21,08,51,19.90
2009,07,21,08,52,19.90
2009,07,21,08,53,20.00
2009,07,21,08,54,20.10
2009,07,21,08,55,20.20
2009,07,21,08,56,20.30
2009,07,21,08,57,20.40
2009,07,21,08,58,20.50
2009,07,21,08,59,20.60
2009,07,21,09,00,20.70
2009,07,21,09,01,20.80
2009,07,21,09,02,20.80
2009,07,21,09,03,20.90
2009,07,21,09,04,21.00
2009,07,21,09,05,21.10
2009,07,21,09,06,21.10
2009,07,21,09,07,21.20
2009,07,21,09,08,21.30
2009,07,21,09,09,21.30
2009,07,21,09,10,21.40
2009,07,21,09,11,21.40
2009,07,21,09,12,21.50
2009,07,21,09,13,21.60
2009,07,21,09,14,21.70
2009,07,21,09,15,21.80
2009,07,21,09,16,21.90
2009,07,21,09,17,22.00
2009,07,21,09,18,22.10
2009,07,21,09,19,22.20
2009,07,21,09,20,22.30
2009,07,21,09,21,22.40
2009,07,21,09,22,22.50
2009,07,21,09,23,22.60
2009,07,21,09,24,22.70
2009,07,21,09,25,22.80
2009,07,21,09,26,22.80
2009,07,21,09,27,22.80
2009,07,21,09,28,22.90
2009,07,21,09,29,23.00
2009,07,21,09,30,23.10
2009,07,21,09,31,23.20
2009,07,21,09,32,23.20
2009,07,21,09,33,23.30
2009,07,21,09,34,23.30
2009,07,21,09,35,23.30
2009,07,21,09,36,23.30
2009,07,21,09,37,23.40
2009,07,21,09,38,23.40
2009,07,21,09,39,23.40
2009,07,21,09,40,23.50
2009,07,21,09,41,23.60
2009,07,21,09,42,23.70
2009,07,21,09,43,23.70
2009,07,21,09,44,23.80
2009,07,21,09,45,23.90
2009,07,21,09,46,23.90
2009,07,21,09,47,23.90
2009,07,21,09,48,24.00
2009,07,21,09,49,24.00
2009,07,21,09,50,24.10
2009,07,21,09,51,24.10
2009,07,21,09,52,24.20
2009,07,21,09,53,24.20
2009,07,21,09,54,24.30
2009,07,21,09,55,24.30
2009,07,21,09,56,24.40
2009,07,21,09,57,24.50
2009,07,21,09,58,24.50
2009,07,21,09,59,24.60
2009,07,21,10,00,24.70
2009,07,21,10,01,24.70
2009,07,21,10,02,24.80
2009,07,21,10,03,24.80
2009,07,21,10,04,24.80
2009,07,21,10,05,24.80
2009,07,21,10,06,24.80
2009,07,21,10,07,24.80
2009,07,21,10,08,24.80
2009,07,21,10,09,24.80
2009,07,21,10,10,24.80
2009,07,21,10,11,24.80
2009,07,21,10,12,24.80
2009,07,21,10,13,24.80
2009,07,21,10,14,24.80
2009,07,21,10,15,24.80
2009,07,21,10,16,24.80
2009,07,21,10,17,24.80
2009,07,21,10,18,24.80
2009,07,21,10,19,24.90
2009,07,21,10,20,24.90
2009,07,21,10,21,25.00
2009,07,21,10,22,25.00
2009,07,21,10,23,25.00
2009,07,21,10,24,25.10
2009,07,21,10,25,25.10
2009,07,21,10,26,25.10
2009,07,21,10,27,25.10
2009,07,21,10,28,25.10
2009,07,21,10,29,25.20
2009,07,21,10,30,25.20
2009,07,21,10,31,25.20
2009,07,21,10,32,25.20
2009,07,21,10,33,25.20
2009,07,21,10,34,25.20
2009,07,21,10,35,25.30
2009,07,21,10,36,25.30
2009,07,21,10,37,25.30
2009,07,21,10,38,25.40
2009,07,21,10,39,25.40
2009,07,21,10,40,25.40
2009,07,21,10,41,25.50
2009,07,21,10,42,25.60
2009,07,21,10,43,25.60
2009,07,21,10,44,25.60
2009,07,21,10,45,25.70
2009,07,21,10,46,25.70
2009,07,21,10,47,25.70
2009,07,21,10,48,25.80
2009,07,21,10,49,25.80
2009,07,21,10,50,25.90
2009,07,21,10,51,25.90
2009,07,21,10,52,25.90
2009,07,21,10,53,25.90
2009,07,21,10,54,25.90
2009,07,21,10,55,25.90
2009,07,21,10,56,25.80
2009,07,21,10,57,25.80
2009,07,21,10,58,25.80
2009,07,21,10,59,25.80
2009,07,21,11,00,25.80
2009,07,21,11,01,25.80
2009,07,21,11,02,25.80
2009,07,21,11,03,25.90
2009,07,21,11,04,25.90
2009,07,21,11,05,25.90
2009,07,21,11,06,25.90
2009,07,21,11,07,25.90
2009,07,21,11,08,25.90
2009,07,21,11,09,25.90
2009,07,21,11,10,25.90
2009,07,21,11,11,25.90
2009,07,21,11,12,25.90
2009,07,21,11,13,25.90
2009,07,21,11,14,25.90
2009,07,21,11,15,25.90
2009,07,21,11,16,26.00
2009,07,21,11,17,26.10
2009,07,21,11,18,26.10
2009,07,21,11,19,26.20
2009,07,21,11,20,26.20
2009,07,21,11,21,26.30
2009,07,21,11,22,26.30
2009,07,21,11,23,26.30
2009,07,21,11,24,26.40
2009,07,21,11,25,26.40
2009,07,21,11,26,26.40
2009,07,21,11,27,26.40
2009,07,21,11,28,26.40
2009,07,21,11,29,26.50
2009,07,21,11,30,26.60
2009,07,21,11,31,26.60
2009,07,21,11,32,26.60
2009,07,21,11,33,26.70
2009,07,21,11,34,26.80
2009,07,21,11,35,26.80
2009,07,21,11,36,26.80
2009,07,21,11,37,26.80
2009,07,21,11,38,26.90
2009,07,21,11,39,27.00
2009,07,21,11,40,27.00
2009,07,21,11,41,27.10
2009,07,21,11,42,27.10
2009,07,21,11,43,27.10
2009,07,21,11,44,27.10
2009,07,21,11,45,27.00
2009,07,21,11,46,26.90
2009,07,21,11,47,26.90
2009,07,21,11,48,26.90
2009,07,21,11,49,26.90
2009,07,21,11,50,26.80
2009,07,21,11,51,26.70
2009,07,21,11,52,26.70
2009,07,21,11,53,26.70
2009,07,21,11,54,26.70
2009,07,21,11,55,26.70
2009,07,21,11,56,26.70
2009,07,21,11,57,26.80
2009,07,21,11,58,26.80
2009,07,21,11,59,26.90
2009,07,21,12,00,26.90
2009,07,21,12,01,26.90
2009,07,21,12,02,26.90
2009,07,21,12,03,26.90
2009,07,21,12,04,26.90
2009,07,21,12,05,27.00
2009,07,21,12,06,27.00
2009,07,21,12,07,27.10
2009,07,21,12,08,27.10
2009,07,21,12,09,27.10
2009,07,21,12,10,27.10
2009,07,21,12,11,27.10
2009,07,21,12,12,27.10
2009,07,21,12,13,27.10
2009,07,21,12,14,27.10
2009,07,21,12,15,27.10
2009,07,21,12,16,27.00
2009,07,21,12,17,27.10
2009,07,21,12,18,27.10
2009,07,21,12,19,27.10
2009,07,21,12,20,27.10
2009,07,21,12,21,27.10
2009,07,21,12,22,27.20
2009,07,21,12,23,27.20
2009,07,21,12,24,27.30
2009,07,21,12,25,27.40
2009,07,21,12,26,27.40
2009,07,21,12,27,27.50
2009,07,21,12,28,27.50
2009,07,21,12,29,27.40
2009,07,21,12,30,27.30
2009,07,21,12,31,27.20
2009,07,21,12,32,27.20
2009,07,21,12,33,27.10
2009,07,21,12,34,27.00
2009,07,21,12,35,27.00
2009,07,21,12,36,26.90
2009,07,21,12,37,26.80
2009,07,21,12,38,26.80
2009,07,21,12,39,26.90
2009,07,21,12,40,27.00
2009,07,21,12,41,27.10
2009,07,21,12,42,27.20
2009,07,21,12,43,27.30
2009,07,21,12,44,27.30
2009,07,21,12,45,27.40
2009,07,21,12,46,27.40
2009,07,21,12,47,27.40
2009,07,21,12,48,27.30
2009,07,21,12,49,27.20
2009,07,21,12,50,27.20
2009,07,21,12,51,27.20
2009,07,21,12,52,27.20
2009,07,21,12,53,27.20
2009,07,21,12,54,27.20
2009,07,21,12,55,27.30
2009,07,21,12,56,27.40
2009,07,21,12,57,27.50
2009,07,21,12,58,27.60
2009,07,21,12,59,27.70
2009,07,21,13,00,27.80
2009,07,21,13,01,27.90
2009,07,21,13,02,27.90
2009,07,21,13,03,28.00
2009,07,21,13,04,28.10
2009,07,21,13,05,28.10
2009,07,21,13,06,28.10
2009,07,21,13,07,28.20
2009,07,21,13,08,28.20
2009,07,21,13,09,28.20
2009,07,21,13,10,28.20
2009,07,21,13,11,28.20
2009,07,21,13,12,28.20
2009,07,21,13,13,28.30
2009,07,21,13,14,28.20
2009,07,21,13,15,28.20
2009,07,21,13,16,28.20
2009,07,21,13,17,28.20
2009,07,21,13,18,28.30
2009,07,21,13,19,28.30
2009,07,21,13,20,28.40
2009,07,21,13,21,28.40
2009,07,21,13,22,28.40
2009,07,21,13,23,28.40
2009,07,21,13,24,28.50
2009,07,21,13,25,28.50
2009,07,21,13,26,28.50
2009,07,21,13,27,28.50
2009,07,21,13,28,28.60
2009,07,21,13,29,28.60
2009,07,21,13,30,28.50
2009,07,21,13,31,28.40
2009,07,21,13,32,28.50
2009,07,21,13,33,28.50
2009,07,21,13,34,28.50
2009,07,21,13,35,28.50
2009,07,21,13,36,28.50
2009,07,21,13,37,28.50
2009,07,21,13,38,28.50
2009,07,21,13,39,28.50
2009,07,21,13,40,28.50
2009,07,21,13,41,28.30
2009,07,21,13,42,28.20
2009,07,21,13,43,28.10
2009,07,21,13,44,28.00
2009,07,21,13,45,27.90
2009,07,21,13,46,27.90
2009,07,21,13,47,27.80
2009,07,21,13,48,27.70
2009,07,21,13,49,27.70
2009,07,21,13,50,27.80
2009,07,21,13,51,27.80
2009,07,21,13,52,27.90
2009,07,21,13,53,28.00
2009,07,21,13,54,28.10
2009,07,21,13,55,28.10
2009,07,21,13,56,28.20
2009,07,21,13,57,28.20
2009,07,21,13,58,28.30
2009,07,21,13,59,28.40
2009,07,21,14,00,28.40
2009,07,21,14,01,28.50
2009,07,21,14,02,28.60
2009,07,21,14,03,28.60
2009,07,21,14,04,28.60
2009,07,21,14,05,28.60
2009,07,21,14,06,28.50
2009,07,21,14,07,28.50
2009,07,21,14,08,28.40
2009,07,21,14,09,28.30
2009,07,21,14,10,28.20
2009,07,21,14,11,28.20
2009,07,21,14,12,28.20
2009,07,21,14,13,28.20
2009,07,21,14,14,28.20
2009,07,21,14,15,28.20
2009,07,21,14,16,28.30
2009,07,21,14,17,28.30
2009,07,21,14,18,28.40
2009,07,21,14,19,28.30
2009,07,21,14,20,28.20
2009,07,21,14,21,28.20
2009,07,21,14,22,28.20
2009,07,21,14,23,28.20
2009,07,21,14,24,28.30
2009,07,21,14,25,28.30
2009,07,21,14,26,28.20
2009,07,21,14,27,28.20
2009,07,21,14,28,28.20
2009,07,21,14,29,28.30
2009,07,21,14,30,28.30
2009,07,21,14,31,28.30
2009,07,21,14,32,28.20
2009,07,21,14,33,28.20
2009,07,21,14,34,28.10
2009,07,21,14,35,28.10
2009,07,21,14,36,28.10
2009,07,21,14,37,28.10
2009,07,21,14,38,28.20
2009,07,21,14,39,28.30
2009,07,21,14,40,28.30
2009,07,21,14,41,28.20
2009,07,21,14,42,28.20
2009,07,21,14,43,28.20
2009,07,21,14,44,28.30
2009,07,21,14,45,28.30
2009,07,21,14,46,28.30
2009,07,21,14,47,28.20
2009,07,21,14,48,28.10
2009,07,21,14,49,28.10
2009,07,21,14,50,28.10
2009,07,21,14,51,28.20
2009,07,21,14,52,28.40
2009,07,21,14,53,28.50
2009,07,21,14,54,28.50
2009,07,21,14,55,28.60
2009,07,21,14,56,28.60
2009,07,21,14,57,28.50
2009,07,21,14,58,28.60
2009,07,21,14,59,28.60
2009,07,21,15,00,28.50
2009,07,21,15,01,28.40
2009,07,21,15,02,28.30
2009,07,21,15,03,28.30
2009,07,21,15,04,28.30
2009,07,21,15,05,28.30
2009,07,21,15,06,28.30
2009,07,21,15,07,28.40
2009,07,21,15,08,28.60
2009,07,21,15,09,28.60
2009,07,21,15,10,28.70
2009,07,21,15,11,28.70
2009,07,21,15,12,28.80
2009,07,21,15,13,28.80
2009,07,21,15,14,28.80
2009,07,21,15,15,28.90
2009,07,21,15,16,29.00
2009,07,21,15,17,29.10
2009,07,21,15,18,29.10
2009,07,21,15,19,29.10
2009,07,21,15,20,29.10
2009,07,21,15,21,29.00
2009,07,21,15,22,29.00
2009,07,21,15,23,28.90
2009,07,21,15,24,29.00
2009,07,21,15,25,28.90
2009,07,21,15,26,28.80
2009,07,21,15,27,28.80
2009,07,21,15,28,28.90
2009,07,21,15,29,28.90
2009,07,21,15,30,29.00
2009,07,21,15,31,29.00
2009,07,21,15,32,29.10
2009,07,21,15,33,29.20
2009,07,21,15,34,29.20
2009,07,21,15,35,29.10
2009,07,21,15,36,29.10
2009,07,21,15,37,29.10
2009,07,21,15,38,29.10
2009,07,21,15,39,29.10
2009,07,21,15,40,29.10
2009,07,21,15,41,29.10
2009,07,21,15,42,29.10
2009,07,21,15,43,29.10
2009,07,21,15,44,29.00
2009,07,21,15,45,29.00
2009,07,21,15,46,29.10
2009,07,21,15,47,29.10
2009,07,21,15,48,29.00
2009,07,21,15,49,28.90
2009,07,21,15,50,28.90
2009,07,21,15,51,28.90
2009,07,21,15,52,28.90
2009,07,21,15,53,28.90
2009,07,21,15,54,29.00
2009,07,21,15,55,29.10
2009,07,21,15,56,29.20
2009,07,21,15,57,29.30
2009,07,21,15,58,29.40
2009,07,21,15,59,29.50
2009,07,21,16,00,29.50
2009,07,21,16,01,29.60
2009,07,21,16,02,29.60
2009,07,21,16,03,29.70
2009,07,21,16,04,29.70
2009,07,21,16,05,29.70
2009,07,21,16,06,29.70
2009,07,21,16,07,29.80
2009,07,21,16,08,29.80
2009,07,21,16,09,29.80
2009,07,21,16,10,29.70
2009,07,21,16,11,29.70
2009,07,21,16,12,29.70
2009,07,21,16,13,29.70
2009,07,21,16,14,29.70
2009,07,21,16,15,29.70
2009,07,21,16,16,29.80
2009,07,21,16,17,29.80
2009,07,21,16,18,29.90
2009,07,21,16,19,30.00
2009,07,21,16,20,30.00
2009,07,21,16,21,30.10
2009,07,21,16,22,30.10
2009,07,21,16,23,30.10
2009,07,21,16,24,30.00
2009,07,21,16,25,30.00
2009,07,21,16,26,30.00
2009,07,21,16,27,30.00
2009,07,21,16,28,30.00
2009,07,21,16,29,30.10
2009,07,21,16,30,30.10
2009,07,21,16,31,30.00
2009,07,21,16,32,30.00
2009,07,21,16,33,30.00
2009,07,21,16,34,30.00
2009,07,21,16,35,30.10
2009,07,21,16,36,30.10
2009,07,21,16,37,30.10
2009,07,21,16,38,30.10
2009,07,21,16,39,30.20
2009,07,21,16,40,30.20
2009,07,21,16,41,30.30
2009,07,21,16,42,30.30
2009,07,21,16,43,30.30
2009,07,21,16,44,30.30
2009,07,21,16,45,30.30
2009,07,21,16,46,30.30
2009,07,21,16,47,30.30
2009,07,21,16,48,30.30
2009,07,21,16,49,30.30
2009,07,21,16,50,30.30
2009,07,21,16,51,30.30
2009,07,21,16,52,30.30
2009,07,21,16,53,30.30
2009,07,21,16,54,30.30
2009,07,21,16,55,30.40
2009,07,21,16,56,30.40
2009,07,21,16,57,30.50
2009,07,21,16,58,30.50
2009,07,21,16,59,30.50
2009,07,21,17,00,30.60
2009,07,21,17,01,30.60
2009,07,21,17,02,30.70
2009,07,21,17,03,30.70
2009,07,21,17,04,30.60
2009,07,21,17,05,30.60
2009,07,21,17,06,30.60
2009,07,21,17,07,30.40
2009,07,21,17,08,30.30
2009,07,21,17,09,30.20
2009,07,21,17,10,30.20
2009,07,21,17,11,30.20
2009,07,21,17,12,30.20
2009,07,21,17,13,30.20
2009,07,21,17,14,30.20
2009,07,21,17,15,30.20
2009,07,21,17,16,30.20
2009,07,21,17,17,30.10
2009,07,21,17,18,30.00
2009,07,21,17,19,30.00